| time (UTC) | temp C | wind direction | speed KPH | gust KPH | rain 1hr cm | rain 24hr cm | rain mn cm | humidity % | barometer mb |
| 20260508063022 | 2 | 269 | 0.0 | 0.0 | 0.00 | 0.05 | 0.00 | 78 | 1011.2 |
| 20260508061519 | 2 | 269 | 0.0 | 0.0 | 0.00 | 0.05 | 0.00 | 77 | 1011.4 |
| 20260508060016 | 3 | 269 | 0.0 | 0.0 | 0.00 | 0.05 | 0.00 | 76 | 1011.6 |
| 20260508054514 | 3 | 269 | 0.0 | 0.0 | 0.00 | 0.05 | 0.00 | 75 | 1011.7 |
| 20260508053010 | 3 | 269 | 0.0 | 0.0 | 0.00 | 0.05 | 0.00 | 71 | 1011.7 |
| 20260508051516 | 4 | 269 | 0.0 | 0.0 | 0.00 | 0.05 | 0.00 | 69 | 1011.7 |
| 20260508050005 | 4 | 269 | 0.0 | 0.0 | 0.00 | 0.05 | 0.00 | 66 | 1012.0 |
| 20260508044505 | 5 | 269 | 0.0 | 0.0 | 0.00 | 0.05 | 0.00 | 69 | 1012.0 |
| 20260508043101 | 5 | 269 | 0.0 | 0.0 | 0.00 | 0.05 | 0.00 | 66 | 1012.0 |
| 20260508043003 | 5 | 269 | 0.0 | 0.0 | 0.00 | 0.05 | 0.00 | 66 | 1011.9 |
| 20260508041603 | 5 | 269 | 0.0 | 0.0 | 0.00 | 0.05 | 0.00 | 63 | 1012.1 |
| 20260508040056 | 5 | 269 | 0.0 | 0.0 | 0.00 | 0.05 | 0.00 | 65 | 1011.9 |
| 20260508034553 | 6 | 269 | 0.0 | 0.0 | 0.00 | 0.08 | 0.05 | 62 | 1012.0 |
| 20260508033059 | 6 | 269 | 0.0 | 0.0 | 0.00 | 0.08 | 0.05 | 61 | 1012.1 |
| 20260508031552 | 6 | 264 | 0.0 | 0.0 | 0.00 | 0.08 | 0.05 | 66 | 1011.9 |
| 20260508030051 | 6 | 320 | 0.0 | 0.0 | 0.00 | 0.08 | 0.05 | 66 | 1012.0 |
| 20260508024557 | 6 | 320 | 0.0 | 0.0 | 0.00 | 0.08 | 0.05 | 67 | 1011.7 |
| 20260508023048 | 6 | 327 | 0.0 | 0.0 | 0.00 | 0.08 | 0.05 | 64 | 1011.9 |
| 20260508021547 | 6 | 327 | 0.0 | 0.0 | 0.00 | 0.08 | 0.05 | 64 | 1011.7 |
| 20260508020046 | 6 | 327 | 0.0 | 0.0 | 0.00 | 0.08 | 0.05 | 60 | 1011.4 |
| 20260508014543 | 7 | 326 | 0.0 | 0.0 | 0.00 | 0.08 | 0.05 | 59 | 1011.3 |
| 20260508013042 | 7 | 327 | 0.0 | 0.0 | 0.00 | 0.08 | 0.05 | 58 | 1011.2 |
| 20260508011542 | 8 | 327 | 0.0 | 0.0 | 0.00 | 0.08 | 0.05 | 56 | 1010.9 |
| 20260508010042 | 8 | 326 | 0.0 | 0.0 | 0.00 | 0.08 | 0.05 | 51 | 1010.8 |
| 20260508004543 | 9 | 326 | 0.0 | 0.0 | 0.00 | 0.08 | 0.05 | 47 | 1010.7 |
| 20260508003042 | 10 | 326 | 0.0 | 0.0 | 0.00 | 0.08 | 0.05 | 52 | 1010.5 |
| 20260508001540 | 10 | 327 | 0.0 | 0.0 | 0.00 | 0.08 | 0.05 | 46 | 1010.3 |
| 20260508000039 | 11 | 326 | 0.0 | 0.0 | 0.00 | 0.08 | 0.05 | 43 | 1010.1 |
| 20260507234548 | 12 | 51 | 0.0 | 0.0 | 0.00 | 0.20 | 0.05 | 41 | 1010.1 |
| 20260507233039 | 12 | 357 | 0.0 | 0.0 | 0.00 | 0.20 | 0.05 | 37 | 1009.8 |
| 20260507231546 | 13 | 240 | 0.0 | 0.0 | 0.00 | 0.20 | 0.05 | 36 | 1009.8 |
| 20260507230038 | 14 | 298 | 0.0 | 3.2 | 0.00 | 0.20 | 0.05 | 34 | 1009.7 |
| 20260507224539 | 15 | 253 | 0.0 | 8.0 | 0.00 | 0.33 | 0.05 | 35 | 1009.6 |
| 20260507223038 | 15 | 139 | 0.0 | 6.4 | 0.00 | 0.33 | 0.05 | 32 | 1009.3 |
| 20260507221537 | 15 | 224 | 0.0 | 8.0 | 0.00 | 0.33 | 0.05 | 33 | 1009.2 |
| 20260507220036 | 16 | 304 | 0.0 | 3.2 | 0.00 | 0.33 | 0.05 | 31 | 1009.1 |
| 20260507214536 | 16 | 312 | 0.0 | 8.0 | 0.00 | 0.43 | 0.05 | 31 | 1009.0 |
| 20260507213044 | 16 | 262 | 0.0 | 0.0 | 0.00 | 0.43 | 0.05 | 31 | 1009.0 |
| 20260507211537 | 16 | 292 | 0.0 | 1.6 | 0.00 | 0.43 | 0.05 | 32 | 1009.1 |
| 20260507210034 | 16 | 295 | 0.0 | 17.7 | 0.00 | 0.61 | 0.05 | 31 | 1008.9 |
| 20260507204533 | 16 | 348 | 0.0 | 16.1 | 0.00 | 0.61 | 0.05 | 33 | 1008.8 |
| 20260507203035 | 17 | 354 | 0.0 | 11.3 | 0.00 | 0.61 | 0.05 | 32 | 1008.8 |
| 20260507201533 | 17 | 253 | 1.6 | 16.1 | 0.00 | 0.61 | 0.05 | 33 | 1008.9 |
| 20260507200030 | 17 | 195 | 0.0 | 4.8 | 0.00 | 0.71 | 0.05 | 32 | 1008.9 |
| 20260507194531 | 17 | 217 | 0.0 | 9.7 | 0.00 | 0.71 | 0.05 | 32 | 1008.9 |
| 20260507193030 | 17 | 7 | 1.6 | 16.1 | 0.00 | 0.71 | 0.05 | 31 | 1009.0 |
| 20260507191527 | 17 | 155 | 0.0 | 14.5 | 0.00 | 0.71 | 0.05 | 30 | 1009.1 |
| 20260507190027 | 17 | 101 | 0.0 | 17.7 | 0.00 | 0.81 | 0.05 | 32 | 1009.3 |
| 20260507184525 | 18 | 321 | 0.0 | 9.7 | 0.00 | 0.81 | 0.05 | 35 | 1009.4 |
| 20260507183025 | 17 | 131 | 0.0 | 1.6 | 0.00 | 0.81 | 0.05 | 30 | 1009.4 |
| 20260507181523 | 17 | 255 | 0.0 | 11.3 | 0.00 | 0.81 | 0.05 | 31 | 1009.5 |
| 20260507180023 | 17 | 23 | 0.0 | 17.7 | 0.00 | 0.81 | 0.05 | 36 | 1009.3 |
| 20260507174624 | 17 | 315 | 0.0 | 3.2 | 0.00 | 0.81 | 0.05 | 33 | 1009.4 |
| 20260507173030 | 17 | 275 | 0.0 | 8.0 | 0.00 | 0.81 | 0.05 | 36 | 1009.6 |
| 20260507171519 | 17 | 288 | 1.6 | 17.7 | 0.00 | 0.81 | 0.05 | 35 | 1009.6 |
| 20260507170016 | 17 | 257 | 0.0 | 9.7 | 0.00 | 0.81 | 0.05 | 44 | 1009.8 |
| 20260507164514 | 17 | 120 | 0.0 | 11.3 | 0.00 | 0.81 | 0.05 | 41 | 1009.8 |
| 20260507163012 | 15 | 290 | 0.0 | 14.5 | 0.00 | 0.81 | 0.05 | 47 | 1010.3 |
| 20260507161520 | 16 | 251 | 0.0 | 8.0 | 0.00 | 0.81 | 0.05 | 54 | 1010.3 |
| 20260507160112 | 15 | 300 | 0.0 | 4.8 | 0.00 | 0.81 | 0.05 | 51 | 1010.6 |
| 20260507154513 | 16 | 354 | 0.0 | 17.7 | 0.00 | 0.81 | 0.05 | 50 | 1010.6 |
| 20260507153011 | 16 | 113 | 0.0 | 8.0 | 0.00 | 0.81 | 0.05 | 49 | 1010.8 |
| 20260507151510 | 16 | 301 | 0.0 | 17.7 | 0.00 | 0.81 | 0.05 | 49 | 1010.9 |
| 20260507150008 | 16 | 266 | 0.0 | 1.6 | 0.00 | 0.81 | 0.05 | 52 | 1011.1 |
| 20260507144506 | 16 | 300 | 0.0 | 4.8 | 0.00 | 0.81 | 0.05 | 56 | 1011.1 |
| 20260507143007 | 15 | 275 | 0.0 | 1.6 | 0.00 | 0.81 | 0.05 | 55 | 1010.9 |
| 20260507141501 | 15 | 132 | 0.0 | 12.9 | 0.00 | 0.81 | 0.05 | 58 | 1010.8 |
| 20260507140100 | 14 | 354 | 0.0 | 1.6 | 0.00 | 0.81 | 0.05 | 55 | 1010.8 |
| 20260507134557 | 13 | 95 | 0.0 | 6.4 | 0.00 | 0.81 | 0.05 | 59 | 1010.8 |
| 20260507133054 | 13 | 13 | 0.0 | 3.2 | 0.00 | 0.81 | 0.05 | 59 | 1011.2 |
| 20260507131551 | 12 | 343 | 0.0 | 8.0 | 0.00 | 0.81 | 0.05 | 67 | 1011.3 |
| 20260507130048 | 12 | 276 | 0.0 | 3.2 | 0.00 | 0.81 | 0.05 | 69 | 1011.4 |
| 20260507124547 | 11 | 255 | 0.0 | 3.2 | 0.00 | 0.81 | 0.05 | 72 | 1011.5 |
| 20260507123048 | 11 | 272 | 0.0 | 0.0 | 0.00 | 0.81 | 0.05 | 75 | 1011.7 |
| 20260507121546 | 10 | 349 | 0.0 | 4.8 | 0.00 | 0.81 | 0.05 | 80 | 1011.6 |
| 20260507120042 | 10 | 262 | 0.0 | 4.8 | 0.00 | 0.81 | 0.05 | 86 | 1011.6 |
| 20260507114542 | 8 | 10 | 0.0 | 1.6 | 0.00 | 0.81 | 0.05 | 90 | 1011.5 |
| 20260507113042 | 7 | 65 | 0.0 | 1.6 | 0.00 | 0.81 | 0.05 | 91 | 1011.3 |
| 20260507111544 | 7 | 65 | 0.0 | 3.2 | 0.00 | 0.81 | 0.05 | 92 | 1011.6 |
| 20260507110039 | 7 | 281 | 0.0 | 1.6 | 0.00 | 0.81 | 0.05 | 93 | 1011.3 |
| 20260507104538 | 7 | 324 | 0.0 | 3.2 | 0.00 | 0.81 | 0.05 | 93 | 1011.0 |
| 20260507103040 | 7 | 134 | 0.0 | 0.0 | 0.00 | 0.81 | 0.05 | 93 | 1011.1 |
| 20260507101545 | 7 | 134 | 0.0 | 1.6 | 0.00 | 0.81 | 0.05 | 93 | 1011.1 |
| 20260507100041 | 7 | 123 | 0.0 | 1.6 | 0.00 | 0.81 | 0.05 | 93 | 1011.3 |
| 20260507094542 | 7 | 347 | 0.0 | 0.0 | 0.00 | 0.81 | 0.05 | 93 | 1011.3 |
| 20260507093036 | 7 | 347 | 0.0 | 1.6 | 0.00 | 0.81 | 0.05 | 92 | 1011.1 |
| 20260507091532 | 7 | 234 | 0.0 | 0.0 | 0.03 | 0.81 | 0.05 | 92 | 1011.2 |
| 20260507090035 | 7 | 41 | 0.0 | 3.2 | 0.05 | 0.81 | 0.05 | 92 | 1010.6 |
| 20260507084535 | 7 | 146 | 0.0 | 1.6 | 0.05 | 0.81 | 0.05 | 91 | 1010.5 |
| 20260507083027 | 8 | 279 | 0.0 | 1.6 | 0.05 | 0.81 | 0.05 | 91 | 1010.5 |
| 20260507081526 | 8 | 264 | 0.0 | 1.6 | 0.03 | 0.79 | 0.03 | 89 | 1010.3 |
| 20260507080022 | 8 | 308 | 0.0 | 3.2 | 0.00 | 0.76 | 0.00 | 86 | 1010.8 |
| 20260507074521 | 9 | 329 | 0.0 | 11.3 | 0.00 | 0.76 | 0.00 | 86 | 1010.5 |
| 20260507073019 | 9 | 41 | 0.0 | 8.0 | 0.00 | 0.76 | 0.00 | 88 | 1010.3 |
| 20260507071517 | 9 | 347 | 0.0 | 4.8 | 0.00 | 0.76 | 0.00 | 89 | 1010.4 |
| 20260507070019 | 9 | 311 | 0.0 | 3.2 | 0.00 | 0.76 | 0.00 | 90 | 1010.0 |
| 20260507064514 | 9 | 334 | 1.6 | 6.4 | 0.00 | 0.76 | 0.00 | 90 | 1010.2 |